When you browse on this site, cookies collect data to enhance your experience and personalize the content and advertising you see.
Visit our Privacy Policy to learn more. By continuing to use the site, you agree to this use of cookies and data.
  • In Lithuania
  • List of Countries
  • For 7 days
  • Water Temperature
  • Satellite Maps
  • Weather Map
  • Weather Widgets
  • user-avatar
    Login

    Hourly Weather Lezhe

    Today, 24 May, Friday

    Time Temperature Precipitation Wind Pressure Humidity
    00:00 +14°C° 0 mm 1 mps 735 mmHg 88%
    01:00 +13°C° 0 mm 1 mps 735 mmHg 88%
    02:00 +13°C° 0 mm 1 mps 735 mmHg 88%
    03:00 +13°C° 0 mm 1 mps 735 mmHg 87%
    04:00 +13°C° 0 mm 1 mps 735 mmHg 87%
    05:00 +14°C° 0 mm 1 mps 735 mmHg 81%
    06:00 +16°C° 0 mm 1 mps 735 mmHg 76%
    07:00 +19°C° 0 mm 1 mps 735 mmHg 70%
    08:00 +20°C° 0 mm 1 mps 735 mmHg 66%
    09:00 +21°C° 0 mm 1 mps 735 mmHg 61%
    10:00 +21°C° 0 mm 2 mps 735 mmHg 57%
    11:00 +23°C° 0.2 mm 2 mps 735 mmHg 58%
    12:00 +22°C° 0.2 mm 3 mps 735 mmHg 59%
    13:00 +22°C° 0.2 mm 3 mps 734 mmHg 59%
    14:00 +21°C° 0.2 mm 3 mps 734 mmHg 62%
    15:00 +21°C° 0.2 mm 3 mps 734 mmHg 64%
    16:00 +20°C° 0.2 mm 2 mps 734 mmHg 67%
    17:00 +19°C° 0 mm 2 mps 734 mmHg 74%
    18:00 +18°C° 0 mm 1 mps 734 mmHg 81%
    19:00 +16°C° 0 mm 1 mps 734 mmHg 88%
    20:00 +15°C° 0 mm 1 mps 735 mmHg 89%
    21:00 +15°C° 0 mm 1 mps 735 mmHg 90%
    22:00 +14°C° 0 mm 1 mps 735 mmHg 92%
    23:00 +14°C° 0 mm 1 mps 736 mmHg 91%

    Tomorrow, 25 May, Saturday

    Time Temperature Precipitation Wind Pressure Humidity
    00:00 +14°C° 0 mm 1 mps 736 mmHg 91%
    01:00 +13°C° 0 mm 1 mps 736 mmHg 90%
    02:00 +13°C° 0 mm 1 mps 736 mmHg 90%
    03:00 +13°C° 0 mm 2 mps 736 mmHg 89%
    04:00 +13°C° 0 mm 2 mps 736 mmHg 89%
    05:00 +14°C° 0 mm 1 mps 736 mmHg 83%
    06:00 +16°C° 0 mm 1 mps 736 mmHg 77%
    07:00 +19°C° 0 mm 1 mps 736 mmHg 71%
    08:00 +20°C° 0 mm 1 mps 736 mmHg 68%
    09:00 +20°C° 0 mm 2 mps 737 mmHg 64%
    10:00 +21°C° 0 mm 2 mps 737 mmHg 61%
    11:00 +23°C° 0 mm 2 mps 737 mmHg 59%
    12:00 +23°C° 0 mm 2 mps 737 mmHg 58%
    13:00 +23°C° 0 mm 2 mps 737 mmHg 56%
    14:00 +23°C° 0 mm 2 mps 736 mmHg 57%
    15:00 +23°C° 0 mm 2 mps 736 mmHg 57%
    16:00 +23°C° 0 mm 2 mps 736 mmHg 58%
    17:00 +21°C° 0 mm 1 mps 736 mmHg 66%
    18:00 +19°C° 0 mm 1 mps 736 mmHg 74%
    19:00 +15°C° 0 mm 0 mps 736 mmHg 82%
    20:00 +16°C° 0 mm 1 mps 737 mmHg 82%
    21:00 +16°C° 0 mm 1 mps 737 mmHg 82%
    22:00 +15°C° 0 mm 1 mps 737 mmHg 82%
    23:00 +15°C° 0 mm 1 mps 737 mmHg 81%

    Day after tomorrow, 26 May, Sunday

    Time Temperature Precipitation Wind Pressure Humidity
    00:00 +15°C° 0 mm 1 mps 737 mmHg 80%
    01:00 +15°C° 0 mm 2 mps 737 mmHg 79%
    02:00 +14°C° 0 mm 2 mps 737 mmHg 77%
    03:00 +14°C° 0 mm 1 mps 737 mmHg 75%
    04:00 +14°C° 0 mm 1 mps 736 mmHg 73%
    05:00 +16°C° 0 mm 1 mps 737 mmHg 68%
    06:00 +18°C° 0 mm 1 mps 737 mmHg 63%
    07:00 +20°C° 0 mm 1 mps 737 mmHg 58%
    08:00 +22°C° 0 mm 1 mps 737 mmHg 52%
    09:00 +22°C° 0 mm 0 mps 737 mmHg 46%
    10:00 +24°C° 0 mm 0 mps 736 mmHg 39%
    11:00 +27°C° 0 mm 1 mps 736 mmHg 40%
    12:00 +27°C° 0 mm 2 mps 737 mmHg 41%
    13:00 +27°C° 0 mm 3 mps 737 mmHg 41%
    14:00 +26°C° 0 mm 3 mps 736 mmHg 45%
    15:00 +25°C° 0 mm 2 mps 736 mmHg 50%
    16:00 +24°C° 0 mm 2 mps 736 mmHg 54%
    17:00 +23°C° 0 mm 2 mps 736 mmHg 61%
    18:00 +21°C° 0 mm 1 mps 736 mmHg 68%
    19:00 +19°C° 0 mm 1 mps 736 mmHg 75%
    20:00 +19°C° 0 mm 1 mps 736 mmHg 74%
    21:00 +19°C° 0 mm 1 mps 736 mmHg 72%
    22:00 +19°C° 0 mm 1 mps 736 mmHg 71%
    23:00 +18°C° 0 mm 2 mps 736 mmHg 71%

    27 May, Monday

    Time Temperature Precipitation Wind Pressure Humidity
    00:00 +18°C° 0 mm 2 mps 736 mmHg 71%
    01:00 +18°C° 0 mm 2 mps 736 mmHg 71%
    02:00 +18°C° 0 mm 2 mps 735 mmHg 72%
    03:00 +18°C° 0 mm 2 mps 735 mmHg 73%
    04:00 +18°C° 0 mm 2 mps 735 mmHg 74%
    05:00 +18°C° 0 mm 2 mps 735 mmHg 74%
    06:00 +19°C° 0 mm 2 mps 735 mmHg 74%
    07:00 +21°C° 0 mm 1 mps 735 mmHg 74%
    08:00 +20°C° 0.3 mm 2 mps 735 mmHg 75%
    09:00 +21°C° 0.3 mm 2 mps 735 mmHg 76%
    10:00 +21°C° 0.3 mm 2 mps 734 mmHg 77%
    11:00 +21°C° 0.9 mm 2 mps 734 mmHg 80%
    12:00 +21°C° 0.9 mm 2 mps 734 mmHg 83%
    13:00 +20°C° 0.9 mm 2 mps 734 mmHg 86%
    14:00 +23°C° 0.3 mm 2 mps 733 mmHg 77%
    15:00 +25°C° 0.3 mm 2 mps 733 mmHg 67%
    16:00 +27°C° 0.3 mm 2 mps 733 mmHg 57%
    17:00 +25°C° 0 mm 2 mps 732 mmHg 62%
    18:00 +24°C° 0 mm 2 mps 732 mmHg 67%
    19:00 +21°C° 0 mm 3 mps 732 mmHg 72%
    20:00 +20°C° 0.9 mm 2 mps 732 mmHg 78%
    21:00 +19°C° 0.9 mm 2 mps 732 mmHg 83%
    22:00 +19°C° 0.9 mm 1 mps 733 mmHg 89%
    23:00 +18°C° 0.7 mm 1 mps 732 mmHg 90%

    28 May, Tuesday

    Time Temperature Precipitation Wind Pressure Humidity
    00:00 +18°C° 0.7 mm 1 mps 732 mmHg 92%
    01:00 +16°C° 0.7 mm 1 mps 732 mmHg 93%
    02:00 +16°C° 0.6 mm 1 mps 732 mmHg 92%
    03:00 +16°C° 0.6 mm 2 mps 732 mmHg 90%
    04:00 +15°C° 0.6 mm 2 mps 732 mmHg 89%
    05:00 +17°C° 0.8 mm 2 mps 732 mmHg 86%
    06:00 +18°C° 0.8 mm 3 mps 732 mmHg 82%
    07:00 +19°C° 0.8 mm 4 mps 733 mmHg 79%
    08:00 +20°C° 1.1 mm 4 mps 733 mmHg 78%
    09:00 +20°C° 1.1 mm 4 mps 733 mmHg 77%
    10:00 +21°C° 1.1 mm 5 mps 733 mmHg 76%
    11:00 +20°C° 1.1 mm 5 mps 733 mmHg 78%
    12:00 +20°C° 1.1 mm 5 mps 733 mmHg 81%
    13:00 +19°C° 1.1 mm 5 mps 733 mmHg 83%
    14:00 +19°C° 1.4 mm 5 mps 733 mmHg 83%
    15:00 +19°C° 1.4 mm 6 mps 733 mmHg 84%
    16:00 +19°C° 1.4 mm 6 mps 733 mmHg 84%
    17:00 +19°C° 1.2 mm 5 mps 733 mmHg 86%
    18:00 +17°C° 1.2 mm 5 mps 733 mmHg 89%
    19:00 +17°C° 1.2 mm 4 mps 733 mmHg 91%
    20:00 +17°C° 1.1 mm 4 mps 734 mmHg 92%
    21:00 +17°C° 1.1 mm 4 mps 734 mmHg 92%
    22:00 +17°C° 1.1 mm 4 mps 734 mmHg 93%
    23:00 +17°C° 0.8 mm 4 mps 734 mmHg 92%

    29 May, Wednesday

    Time Temperature Precipitation Wind Pressure Humidity
    00:00 +17°C° 0.8 mm 3 mps 734 mmHg 92%
    01:00 +17°C° 0.8 mm 3 mps 734 mmHg 92%
    02:00 +17°C° 0.4 mm 3 mps 735 mmHg 91%
    03:00 +16°C° 0.4 mm 3 mps 735 mmHg 91%
    04:00 +16°C° 0.4 mm 3 mps 735 mmHg 91%
    05:00 +17°C° 0.4 mm 3 mps 735 mmHg 90%
    06:00 +17°C° 0.4 mm 3 mps 735 mmHg 89%
    07:00 +17°C° 0.4 mm 3 mps 736 mmHg 88%
    08:00 +18°C° 0.6 mm 4 mps 736 mmHg 85%
    09:00 +19°C° 0.6 mm 4 mps 736 mmHg 81%
    10:00 +20°C° 0.6 mm 4 mps 737 mmHg 77%
    11:00 +21°C° 0.5 mm 4 mps 737 mmHg 78%
    12:00 +21°C° 0.5 mm 4 mps 737 mmHg 78%
    13:00 +21°C° 0.5 mm 4 mps 737 mmHg 78%
    14:00 +21°C° 0.2 mm 3 mps 737 mmHg 77%
    15:00 +21°C° 0.2 mm 2 mps 737 mmHg 77%
    16:00 +21°C° 0.2 mm 2 mps 737 mmHg 76%
    17:00 +21°C° 0 mm 1 mps 737 mmHg 81%
    18:00 +19°C° 0 mm 1 mps 737 mmHg 85%
    19:00 +18°C° 0 mm 1 mps 737 mmHg 89%
    20:00 +18°C° 0 mm 1 mps 738 mmHg 90%
    21:00 +16°C° 0 mm 1 mps 738 mmHg 90%
    22:00 +16°C° 0 mm 1 mps 738 mmHg 90%
    23:00 +16°C° 0 mm 1 mps 738 mmHg 88%
    Show more